Weather History for Baton Rouge, LA

Change the Weather History Date:

Thursday, March 28, 2013

  Actual Average Record
Temperature  
Mean Temperature 54 °F 64 °F  
Max Temperature 72 °F 76 °F 87 °F (1989)
Min Temperature 36 °F 52 °F 34 °F (1937)
Degree Days  
Heating Degree Days 11 4  
Month to date heating degree days 270 158  
Since 1 July heating degree days 1442 1493  
Cooling Degree Days 0 3  
Month to date cooling degree days 18 50  
Year to date cooling degree days 43 81  
Growing Degree Days 4 (Base 50)    
Moisture  
Dew Point 37 °F    
Average Humidity 58    
Maximum Humidity 92    
Minimum Humidity 24    
Precipitation  
Precipitation 0.00 in 0.15 in 2.15 in (1951)
Month to date precipitation 2.41 3.95  
Year to date precipitation 24.45 14.71  
Snow  
Snow 0.00 in - - ()
Month to date snowfall 0.0  
Since 1 July snowfall 0.0  
Snow Depth 0.00 in    
Sea Level Pressure  
Sea Level Pressure 30.30 in    
Wind  
Wind Speed 3 mph (SE)    
Max Wind Speed 10 mph    
Max Gust Speed 29 mph    
Visibility 10 miles    
Events      
T = Trace of Precipitation, MM = Missing Value Source: NWS Daily Summary

Daily Weather History Graph

Daily Weather History Graph

Search for Another Location

Airport:

Trip Planner

Search our weather history database for the weather conditions in past years. The results will help you decide how hot, cold, wet, or windy it might be!

Date:

Astronomy

Mar. 28, 2013 Rise Set
Actual Time 6:58 AM CDT 7:21 PM CDT
Civil Twilight 6:34 AM CDT 7:45 PM CDT
Nautical Twilight 6:05 AM CDT 8:13 PM CDT
Astronomical Twilight 5:37 AM CDT 8:42 PM CDT
Moon 9:02 PM CDT (3/28) 7:34 AM CDT (3/28)
Length of Visible Light 13h 11m
Length of Day
12h 23m
Full, 98% of the Moon is Illuminated
Mar 28
Full
Apr 2
Last Quarter
Apr 10
New
Apr 18
First Quarter
Apr 25
Full

Hourly Weather History & Observations

Time (CDT) Temp. Windchill Dew Point Humidity Pressure Visibility Wind Dir Wind Speed Gust Speed Precip Events Conditions
12:53 AM 46.9 °F - 37.0 °F 68% 30.32 in 10.0 mi WSW 5.8 mph - N/A   Clear
1:53 AM 44.1 °F - 37.9 °F 79% 30.32 in 10.0 mi Calm Calm - N/A   Clear
2:53 AM 39.9 °F - 37.0 °F 89% 30.30 in 10.0 mi Calm Calm - N/A   Clear
3:53 AM 37.9 °F - 36.0 °F 93% 30.29 in 10.0 mi Calm Calm - N/A   Clear
4:53 AM 37.9 °F - 36.0 °F 93% 30.30 in 10.0 mi Calm Calm - N/A   Clear
5:53 AM 37.0 °F - 34.0 °F 89% 30.31 in 10.0 mi Calm Calm - N/A   Clear
6:53 AM 37.0 °F 34.5 °F 34.0 °F 89% 30.32 in 10.0 mi NE 3.5 mph - N/A   Clear
7:53 AM 41.0 °F - 37.0 °F 86% 30.34 in 10.0 mi Calm Calm - N/A   Partly Cloudy
8:53 AM 48.9 °F - 39.0 °F 69% 30.36 in 10.0 mi East 3.5 mph - N/A   Clear
9:53 AM 55.9 °F - 37.9 °F 51% 30.36 in 10.0 mi ENE 3.5 mph - N/A   Clear
10:53 AM 60.1 °F - 35.1 °F 39% 30.37 in 10.0 mi East 6.9 mph - N/A   Clear
11:53 AM 64.0 °F - 32.0 °F 30% 30.36 in 10.0 mi SSE 3.5 mph - N/A   Clear
12:53 PM 66.0 °F - 30.9 °F 27% 30.34 in 10.0 mi ESE 4.6 mph - N/A   Clear
1:53 PM 68.0 °F - 30.9 °F 25% 30.30 in 10.0 mi East 3.5 mph - N/A   Clear
2:53 PM 69.1 °F - 32.0 °F 25% 30.27 in 10.0 mi East 5.8 mph - N/A   Clear
3:53 PM 70.0 °F - 32.0 °F 25% 30.25 in 10.0 mi Variable 3.5 mph - N/A   Clear
4:53 PM 70.0 °F - 35.1 °F 28% 30.23 in 10.0 mi WNW 4.6 mph - N/A   Clear
5:53 PM 70.0 °F - 36.0 °F 29% 30.23 in 10.0 mi South 5.8 mph - N/A   Clear
6:53 PM 66.9 °F - 37.9 °F 34% 30.24 in 10.0 mi SSE 5.8 mph - N/A   Clear
7:53 PM 62.1 °F - 39.0 °F 43% 30.26 in 10.0 mi SE 5.8 mph - N/A   Clear
8:53 PM 60.1 °F - 41.0 °F 49% 30.27 in 10.0 mi SE 5.8 mph - N/A   Clear
9:53 PM 57.0 °F - 45.0 °F 64% 30.29 in 10.0 mi SSW 6.9 mph - N/A   Clear
10:53 PM 55.9 °F - 45.0 °F 67% 30.30 in 10.0 mi South 5.8 mph - N/A   Clear
11:53 PM 54.0 °F - 46.0 °F 75% 30.30 in 10.0 mi South 3.5 mph - N/A   Clear